Ekspress AM-8

operational
NORAD ID: 40895 Int'l Des: 2015-048 Owner: KS Country: RU
HEOCIRCULARGSOGEO

Über Ekspress AM-8

Beschreibung wird geladen...

Live-Position

3D-Globus wird geladen...

Nächste Überflüge

Höhenverlauf

Altitude vs Time

uPlot chart will show altitude changes over time

Zweizeiliger Elementsatz

1 40895U 15048A 26063.08286067 -.00000126 00000-0 00000+0 0 9997
2 40895 0.0309 258.2779 0000279 284.0775 355.2967 1.00264033 38299
Epoch: 4. März 2026 • Age: 22 hours

Aktueller Status

Höhe 35787.7 km
Geschwindigkeit 3.07 km/s
Subsatellitenpunkt -0.02°S, 14.03°W
Startdatum 14. Sept. 2015
Alter 10.4 years
Typ other

Technische Details

Klassifizierung Payload
Masse 2163.00 kg
Trockenmasse 1900.00 kg
Gesamtmasse 2163.00 kg
Länge 4.00 m
Durchmesser 2.00 m
Spannweite 15.00 m
Form Box + 2 Pan
Hersteller RESH
Bus-Typ Ekspress-1000HTB
Phasenstatus In Orbit
Besitzer/Staat KS/RU

Große Konstellationen

Loading constellations...